Regional Weather Roundup
Issued by NWS

Home | Current Version | Previous Version | Text Only | Print | Product List | Glossary On
Versions: 1 2 3 4 5 6 7 8 9 10 11 12 13 14 15 16 17 18 19 20 21 22 23 24 25 26 27 28 29 30 31 32 33 34 35 36 37 38 39 40 41 42 43 44 45 46 47 48 49 50
000
ASUS43 KTOP 060008
RWRKS

WEATHER ROUNDUP FOR KANSAS
NATIONAL WEATHER SERVICE GOODLAND KS
600 PM CST FRI FEB 05 2016

NOTE:  "FAIR" INDICATES FEW OR NO CLOUDS BELOW 12,000 FEET WITH NO
SIGNIFICANT WEATHER AND/OR OBSTRUCTIONS TO VISIBILITY.

KSZ001>006-013>018-027>032-041>047-060100-
NORTHWEST KANSAS

CITY           SKY/WX    TMP DP  RH WIND       PRES   REMARKS
GOODLAND       CLEAR     30  21  69 NW10      30.27R WCI  21
6HR MIN TEMP:  30; 6HR MAX TEMP:  36;

HAYS           CLEAR     36  21  55 W8        30.26R
HILL CITY      CLEAR     36  26  67 NW10      30.27R WCI  28
6HR MIN TEMP:  36; 6HR MAX TEMP:  40;

RUSSELL        CLEAR     34  29  82 W7        30.24R
6HR MIN TEMP:  30; 6HR MAX TEMP:  38;

$$

KSZ061>065-074>080-084>089-060100-
SOUTHWEST KANSAS

CITY           SKY/WX    TMP DP  RH WIND       PRES   REMARKS
DODGE CITY     CLEAR     36  24  62 NW12      30.27R WCI  28
6HR MIN TEMP:  33; 6HR MAX TEMP:  42;

ELKHART          N/A    N/A N/A N/A MISG        N/A
GARDEN CITY    CLEAR     36  25  64 NW9       30.28R
6HR MIN TEMP:  32; 6HR MAX TEMP:  41;

GREAT BEND     PTCLDY    37  23  56 W7        30.26F
LIBERAL        CLEAR     39  19  45 N15       30.29R WCI  31
PRATT          CLEAR     36  17  45 NW7       30.26R
6HR MIN TEMP:  36; 6HR MAX TEMP:  47;

$$

KSZ066>073-081>083-090>101-060100-
SOUTHEAST KANSAS

CITY           SKY/WX    TMP DP  RH WIND       PRES   REMARKS
CHANUTE        PTCLDY    46  23  40 SE5       30.27S
6HR MIN TEMP:  43; 6HR MAX TEMP:  54;

COFFEYVILLE    PTCLDY    49  22  34 SE8       30.28R
6HR MIN TEMP:  48; 6HR MAX TEMP:  55;

HUTCHINSON     CLEAR     41  21  44 W13       30.26S
6HR MIN TEMP:  40; 6HR MAX TEMP:  49;

MEDICINE LODGE   N/A     44  24  45 N8        30.26R
NEWTON         CLEAR     45  21  39 CALM      30.26F
PARSONS        MOCLDY    48  24  39 SE5       30.28S
6HR MIN TEMP:  47; 6HR MAX TEMP:  55;

WICHITA INTL   PTCLDY    46  27  47 NW8       30.24S
6HR MIN TEMP:  46; 6HR MAX TEMP:  52;

WICHITA JABRA  PTCLDY    43  25  49 NW7       30.24F
6HR MIN TEMP:  43; 6HR MAX TEMP:  50;

WICHITA MCCONL PTCLDY    48  26  42 W5        30.24S
WINFIELD       PTCLDY    45  30  55 SW6       30.25R
6HR MIN TEMP:  45; 6HR MAX TEMP:  55;

$$

KSZ007>012-019>026-033>040-048>060-102>105-060100-
NORTHEAST KANSAS

CITY           SKY/WX    TMP DP  RH WIND       PRES   REMARKS
CONCORDIA      CLEAR     36  24  62 W7        30.24R
6HR MIN TEMP:  33; 6HR MAX TEMP:  42;

EMPORIA        MOCLDY    45  22  40 SE3       30.24F
6HR MIN TEMP:  38; 6HR MAX TEMP:  49;

LAWRENCE         N/A     37  24  59 CALM      30.29R
MANHATTAN      CLOUDY    39  24  55 S3        30.25F
6HR MIN TEMP:  35; 6HR MAX TEMP:  46;

MARYSVILLE     CLOUDY    37  27  65 SW3       30.24S
OLATHE IND     CLOUDY    40  23  50 SE8       30.28F
6HR MIN TEMP:  33; 6HR MAX TEMP:  43;

OLATHE EXE     CLOUDY    40  22  48 S7        30.28F
6HR MIN TEMP:  33; 6HR MAX TEMP:  43;

SALINA         CLEAR     41  22  46 S6        30.26R
6HR MIN TEMP:  39; 6HR MAX TEMP:  49;

TOPEKA BILLARD CLOUDY    40  22  48 E3        30.28R
6HR MIN TEMP:  34; 6HR MAX TEMP:  44;

TOPEKA FORBES  CLOUDY    40  24  53 N5        30.26S
6HR MIN TEMP:  34; 6HR MAX TEMP:  45;

$$



USA.gov is the U.S. government's official web portal to all federal, state and local government web resources and services.